Regional Weather Roundup
Issued by NWS Cleveland, OH

Home | Current Version | Previous Version | Graphics & Text | Print | Product List | Glossary On
Versions: 1 2 3 4 5 6 7 8 9 10 11 12 13 14 15 16 17 18 19 20 21 22 23 24 25 26 27 28 29 30 31 32 33 34 35 36 37 38 39 40 41 42 43 44 45 46 47 48 49 50
879
ASUS41 KCLE 240200
RWRCLE
OHIO REGIONAL WEATHER ROUNDUP
NATIONAL WEATHER SERVICE WILMINGTON, OH
900 PM EST MON JAN 23 2017

NOTE: "FAIR" INDICATES FEW OR NO CLOUDS BELOW 12,000 FEET WITH NO
SIGNIFICANT WEATHER AND/OR OBSTRUCTIONS TO VISIBILITY.

OHZ001>008-015>018-024>027-034-035-043-044-240300-
   NORTHWEST OHIO

CITY           SKY/WX    TMP DP  RH WIND       PRES   REMARKS
DEFIANCE       LGT RAIN  42  41  96 N5        29.71R FOG
FINDLAY        LGT RAIN  42  37  82 NE16      29.66S
TOLEDO EXPRESS LGT RAIN  42  42 100 NE6       29.70R FOG
TOLEDO EXEC    LGT RAIN  42  42 100 NE6       29.70S FOG
LIMA           LGT RAIN  39  39 100 N13       29.67R
$$

OHZ009>014-019>023-028>033-038-089-240300-
   NORTHEAST OHIO

CITY           SKY/WX    TMP DP  RH WIND       PRES   REMARKS
CLE-HOPKINS    DRIZZLE   41  37  86 NE9       29.66S
CLE-LAKEFRONT  LGT RAIN  38  36  92 NE12      29.64S
CUY CO. ARPT   CLOUDY    41  39  93 E9        29.64S
LORAIN-ELYRIA  CLOUDY    38  35  89 NE12      29.64F FOG
ASHTABULA      CLOUDY    39  38  96 NE6       29.64F
AKRON-CANTON   LGT RAIN  42  38  85 E6        29.62R FOG
WOOSTER        CLOUDY    41  39  93 SE7       29.62S FOG
MANSFIELD      CLOUDY    40  40 100 N7        29.61S FOG
YOUNGSTOWN     CLOUDY    41  38  89 E5        29.62R
$$

OHZ042-051>053-060>062-070>072-077>081-240300-
  SOUTHWEST OHIO

CITY           SKY/WX    TMP DP  RH WIND       PRES   REMARKS
CINC-COVINGTON DRIZZLE   45  43  93 NW16      29.66R
CINC-LUNKEN    LGT RAIN  46  45  96 NW6       29.67R
HAMILTON       LGT RAIN  46  44  93 NW10      29.68R FOG
DAYTON         NOT AVBL
WRIGHT-PAT AFB NOT AVBL
DAYTON GENERAL LGT RAIN  43  41  93 N12       29.64R FOG
WILMINGTON     LGT RAIN  43  42  97 NW10      29.62R FOG
$$

OHZ036-037-039>041-045>050-054>059-063>069-073>076-082>088-240300-
  CENTRAL AND SOUTHEAST OHIO

CITY           SKY/WX    TMP DP  RH WIND       PRES   REMARKS
COLUMBUS       CLOUDY    45  42  89 N5        29.60R FOG
OSU AIRPORT    CLOUDY    42  42 100 N9        29.60S FOG
BOLTON FIELD   NOT AVBL
RICKENBACK AFB NOT AVBL
NEWARK         LGT RAIN  42  40  92 NE3       29.60R FOG
MARION         CLOUDY    40  38  93 N13       29.63S
LANCASTER      CLOUDY    45  40  82 NE3       29.60R
ZANESVILLE     CLOUDY    41  37  86 NE7       29.60S
NEW PHILLY     CLOUDY    40  37  89 NE3       29.63R
$$




USA.gov is the U.S. government's official web portal to all federal, state and local government web resources and services.